Regional Weather Roundup
Issued by NWS

Home | Current Version | Previous Version | Graphics & Text | Print | Product List | Glossary On
Versions: 1 2 3 4 5 6 7 8 9 10 11 12 13 14 15 16 17 18 19 20 21 22 23 24 25 26 27 28 29 30 31 32 33 34 35 36 37 38 39 40 41 42 43 44 45 46 47 48 49 50
000
ASUS43 KDMX 200701
RWRIA

WEATHER ROUNDUP FOR IOWA
NATIONAL WEATHER SERVICE DES MOINES IA
100 AM CST MON NOV 20 2017

NOTE: "FAIR" INDICATES FEW OR NO CLOUDS BELOW 12,000 FEET WITH NO
SIGNIFICANT WEATHER AND/OR OBSTRUCTIONS TO VISIBILITY.

* - THESE STATIONS ARE NOT NWS STATIONS...THUS NOT UNDER NWS
QUALITY CONTROL.  THEY ALSO DO NOT REPORT WEATHER SUCH
AS PRECIPITATION OR FOG.

IAZ001>003-012>014-020>022-031>034-043>046-200800-
   NORTHWEST IOWA

CITY           SKY/WX    TMP DP  RH WIND       PRES   REMARKS
CARROLL *      PTCLDY    37  27  65 SW16      29.83F WCI  28
CHEROKEE *     PTCLDY    36  26  68 S6        29.81F WCI  31
DENISON *      CLOUDY    37  25  60 S10       29.85F WCI  30
LE MARS *      MOCLDY    34  27  75 S8        29.79F WCI  27
ORANGE CITY *  PTCLDY    36  28  75 S6        29.77F WCI  31
SHELDON *      CLOUDY    34  25  69 S8        29.76F WCI  27
SIOUX CITY     PTCLDY    31  25  78 E9        29.80F WCI  23
SPENCER        CLOUDY    32  25  75 S10       29.79F WCI  24
STORM LAKE *   CLOUDY    37  25  60 SW13      29.80F WCI  29
$$

IAZ055>058-069>071-079>083-090>094-200800-
   SOUTHWEST IOWA

CITY           SKY/WX    TMP DP  RH WIND       PRES   REMARKS
ATLANTIC *     CLOUDY    32  27  80 S9        29.89F WCI  24
AUDUBON *      CLOUDY    37  27  65 S8        29.87F WCI  31
CLARINDA *     CLOUDY    36  28  75 S10       29.94F WCI  28
COUNCIL BLFS * CLEAR     37  27  65 S8        29.87F WCI  31
CRESTON *      CLOUDY    36  28  75 S14       29.92F WCI  27
HARLAN  *      CLOUDY    34  27  75 S9        29.90F WCI  26
LAMONI         CLOUDY    37  29  72 S13       29.94F WCI  29
RED OAK *      CLOUDY    36  27  69 SW8       29.91F WCI  29
SHENANDOAH *   CLOUDY    37  27  65 S9        29.92F WCI  31
$$

IAZ047>049-059>061-072>074-084-200800-
   CENTRAL IOWA

CITY           SKY/WX    TMP DP  RH WIND       PRES   REMARKS
AMES           CLOUDY    36  29  75 S7        29.87F WCI  30
ANKENY *       CLOUDY    39  28  65 S12G18    29.90F WCI  32
BOONE *        CLOUDY    39  28  65 SW10G21   29.85F WCI  32
CHARITON *     CLOUDY    37  28  70 S15       29.94F WCI  28
DES MOINES     CLOUDY    40  27  59 SW13      29.91F WCI  32
GRINNELL*      CLOUDY    36  28  75 SW12      29.92F WCI  27
KNOXVILLE *    CLEAR     41  27  56 S17       29.91F
MARSHALLTOWN   CLOUDY    37  28  70 SW13      29.88F WCI  29
NEWTON *       CLOUDY    37  28  70 SW17      29.90F WCI  28
PELLA *        CLEAR     40  28  64 SW9       29.94F WCI  33
PERRY *          N/A     33  29  87 S13       29.86F WCI  23
$$

IAZ004>006-015-016-023>025-035-036-200800-
   NORTH CENTRAL IOWA

CITY           SKY/WX    TMP DP  RH WIND       PRES   REMARKS
ALGONA *       PTCLDY    30  30 100 S9        29.81F WCI  22
CLARION *      CLOUDY    32  32 100 S9        29.83F WCI  24
ESTHERVILLE    CLOUDY    34  26  72 SW9       29.78F WCI  27
FORT DODGE *   CLOUDY    33  26  75 S8        29.83F WCI  26
MASON CITY     PTCLDY    35  27  72 S8        29.84F WCI  29
FOREST CITY *    N/A     32  30  93 S5        29.82F WCI  27
WEBSTER CITY * CLOUDY    34  27  75 S10G16    29.82F WCI  26
IOWA FALLS *     N/A     34  29  81 S13       29.86F WCI  25
$$

IAZ007>011-017>019-026>030-037>042-050>054-066-200800-
   NORTHEAST IOWA

CITY           SKY/WX    TMP DP  RH WIND       PRES   REMARKS
CEDAR RAPIDS   CLOUDY    34  27  75 S9        29.92F WCI  27
CHARLES CITY * CLOUDY    32  30  93 S7        29.86F WCI  26
CLINTON *      CLOUDY    32  26  78 S3        29.98F
DECORAH *      CLOUDY    34  27  75 SW10G16   29.85F WCI  26
DUBUQUE        CLOUDY    31  25  78 S13       29.93F WCI  21
MONTICELLO *   CLOUDY    32  25  74 S6        29.93F WCI  26
OELWEIN *      CLOUDY    30  30 100 S9        29.89F WCI  22
WATERLOO       PTCLDY    35  26  69 S9        29.88F WCI  28
$$

IAZ064-065-067-068-078-200800-
   EAST CENTRAL IOWA

CITY           SKY/WX    TMP DP  RH WIND       PRES   REMARKS
DAVENPORT      CLOUDY    34  24  67 S10       30.00F WCI  26
IOWA CITY      CLOUDY    36  27  69 S9        29.97F WCI  29
MT. PLEASANT * CLOUDY    33  26  73 S12       30.00F WCI  25
MUSCATINE *    CLOUDY    36  27  69 S10       29.99F WCI  28
QUAD CITIES    PTCLDY    36  24  62 SW6       29.98F WCI  31
$$

IAZ062-063-075>077-085>089-095>099-200800-
   SOUTHEAST IOWA

CITY           SKY/WX    TMP DP  RH WIND       PRES   REMARKS
BURLINGTON     CLOUDY    33  26  75 S10       30.01F WCI  25
FAIRFIELD *    CLOUDY    37  27  65 SW14      29.96F WCI  29
FORT MADISON * CLOUDY    37  27  65 S12       30.02F WCI  30
KEOKUK *       CLOUDY    36  27  69 S13G18    30.02F WCI  27
OSKALOOSA *      N/A     37  29  74 SW14      29.95F WCI  28
OTTUMWA        CLEAR     39  28  64 SW15      29.95F WCI  31
WASHINGTON *   CLOUDY    34  28  80 S12       29.98F WCI  25
$$

ABBREVIATIONS USED IN REMARKS
   TC - TEMPERATURES IN CELSIUS
  WCI - WIND CHILL INDEX
   HX - HEAT INDEX
  VSB - VISIBILITY
$$




USA.gov is the U.S. government's official web portal to all federal, state and local government web resources and services.